COSMOS 1275 DEB, 12663

Orbit data source: Space-Track

COSMOS 1275 DEB, 12663 is space debris in LEO originally from a launch on Thu, 04 Jun 1981 UTC launched from the Plesetsk Missile And Space Complex (PKMTR). Debris objects in space refer to the collection of defunct objects orbiting the Earth. Examples of debris include non-operational satellites, rocket bodies, and fragments generated from explosions, collisions, or faulty payload assembly.

Loading next visibility...
Identifier
12663, 1981-053T
Orbit
LEO
Country
Flag of CISCIS
Related business
Manufacturer
Unknown
Mission
Spacecraft
Bus & Motor
Unknown
Mass
Unknown
Launch date (UTC)
1981-06-04 (45 years ago)
Launch vehicle
Unknown
Launch site
Plesetsk Missile And Space Complex (PKMTR)
Object type
Payload
Rocket body
Debris
Shape & HBR
Unknown shape, 0.2 m
Radar Cross Section
Medium (>0.1 m² and <1 m²)

Expand to show TLE details & history
Last TLE update: 2 days ago

TLE from 2 days ago
0 COSMOS 1275 DEB
1 12663U 81053T   26171.42315859  .00000521  00000-0  42032-3 0  9991
2 12663  82.9519 158.1606 0050678 151.8534   0.2742 13.87932652259652
Epoch: 2026-06-20T10:09Z
TLE epoch observation values (Epoch: 2026-06-20T10:09:20.902Z)
Latitude
27.68166°
Longitude
-86.51377°
Altitude
902.216 km
Speed
7.422 km/s
True Right ascension
22h 17m 50s
True Declination
27° 32' 36"
Sunlit
Object was in daylight at epoch
Visualization orbit readout
Latitude
Unknown
Longitude
Unknown
Altitude
Unknown
Speed
Unknown
Apparent Right ascension
Unknown
Apparent Declination
Unknown
Sunlit
N/A
Visualization observer readout
Local Sidereal Time
17:33:47
Azimuth
Unknown
Elevation
Unknown
Doppler factor
Unknown
Orbital elements
Apogee altitude
970.067 km
Perigee altitude
895.964 km
Semi-major axis
7,311.152 km
Eccentricity
0.00507
Inclination
82.9519°
RAAN
158.1606°
Arg. of periapsis
151.8534°
True anomaly
0.277°
Mean anomaly
0.2742°
Eccentric anomaly
0.2756°
Mean motion
3.47188 °/min
Orbital period
103.69 mins
BSTAR
0.00042032
Loading maneuver chart data...
Computing Atmospheric mass density...
Loading historical data...
Loading historical data...
Loading historical data...
Loading historical data...
Loading historical data...
Loading historical data...
Loading historical data...

Documentation

Showing up to 5 results
|